Location: Newark
(45.7425°N, 0.7617°W)
Time: 14:30:15
(UTC+00:00)

ISS - Visible Passes

Search period start: 26 January 2020 00:00
Search period end: 05 February 2020 00:00
Orbit: 416 x 423 km, 51.6° (Epoch: 27 January)

Date Brightness Start Highest point End Pass type
(mag) Time Alt. Az. Time Alt. Az. Time Alt. Az.
26 Jan -2.4 19:02:06 10° WNW 19:04:54 31° NNW 19:04:54 31° NNW visible
27 Jan -2.7 18:14:22 10° W 18:17:33 37° NNW 18:19:21 21° NE visible
27 Jan -0.5 19:51:53 10° WNW 19:52:18 13° NW 19:52:18 13° NW visible
28 Jan -3.1 17:26:38 10° W 17:29:56 47° NNW 17:33:14 10° NE visible
28 Jan -2.2 19:04:14 10° WNW 19:06:44 27° NNW 19:06:44 27° NNW visible
29 Jan -2.4 18:16:31 10° WNW 18:19:33 29° N 18:21:08 20° NE visible
29 Jan -0.6 19:53:42 10° NW 19:54:06 13° NW 19:54:06 13° NW visible
30 Jan -2.3 19:06:07 10° NW 19:08:31 29° NNW 19:08:31 29° NNW visible
31 Jan -2.5 18:18:30 10° WNW 18:21:32 30° N 18:22:57 21° NE visible
31 Jan -0.6 19:55:22 10° WNW 19:55:55 14° WNW 19:55:55 14° WNW visible
01 Feb -2.8 19:07:47 10° WNW 19:10:23 40° NNW 19:10:23 40° NNW visible
02 Feb -3.0 18:20:13 10° NW 18:23:26 38° NNE 18:24:54 25° ENE visible
02 Feb -0.7 19:57:01 10° WNW 19:57:52 16° WNW 19:57:52 16° WNW visible
03 Feb -3.6 19:09:23 10° WNW 19:12:28 70° W 19:12:28 70° W visible
04 Feb -3.8 18:21:48 10° WNW 18:25:10 68° NNE 18:27:10 22° ESE visible
04 Feb -0.7 19:59:04 10° W 20:00:09 16° W 20:00:09 16° W visible
